Jaffrey, NH

12:32 AM EDT on June 29, 2017 (GMT -0400)
Jaffrey Airport-Silver Ranch

Weather History for KAFN - May, 2012

Change the Weather History Date:

Monday, May 28, 2012

  Actual Average Record
Temperature  
Mean Temperature 70 °F -  
Max Temperature 84 °F 64 °F 90 °F (2016)
Min Temperature 59 °F 44 °F 34 °F (1997)
Cooling Degree Days 6    
Growing Degree Days 20 (Base 50)    
Moisture  
Dew Point 56 °F    
Average Humidity 62    
Maximum Humidity 81    
Minimum Humidity 42    
Precipitation  
Precipitation 0.00 in - - ()
Sea Level Pressure  
Sea Level Pressure 29.99 in    
Wind  
Wind Speed 2 mph (SE)    
Max Wind Speed 12 mph    
Max Gust Speed 18 mph    
Visibility 10 miles    
Events      
Averages and records for this station are not official NWS values.
T = Trace of Precipitation, MM = Missing Value Source: NWS Daily Summary

Daily Weather History Graph

Daily Weather History Graph

Search for Another Location

Airport or City:

Trip Planner

Search our weather history database for the weather conditions in past years. The results will help you decide how hot, cold, wet, or windy it might be!

Date:

Astronomy

May. 28, 2012 Rise Set
Actual Time 5:14 AM EDT 8:16 PM EDT
Civil Twilight 4:40 AM EDT 8:51 PM EDT
Nautical Twilight 3:56 AM EDT 9:34 PM EDT
Astronomical Twilight 3:05 AM EDT 10:26 PM EDT
Moon 12:28 PM EDT (5/28) 12:46 AM EDT (5/28)
Length of Visible Light 16h 10m
Length of Day
15h 02m
Waxing Crescent, 48% of the Moon is Illuminated
May 28
Waxing Crescent
May 28
First Quarter
Jun 4
Full
Jun 11
Last Quarter
Jun 19
New

Hourly Weather History & Observations

Time (EDT) Temp. Heat Index Dew Point Humidity Pressure Visibility Wind Dir Wind Speed Gust Speed Precip Events Conditions
12:52 AM 66.9 °F - 57.9 °F 73% 30.01 in 10.0 mi Calm Calm - N/A   Mostly Cloudy
1:52 AM 64.0 °F - 57.9 °F 80% 29.99 in 10.0 mi Calm Calm - N/A   Clear
2:39 AM 64.4 °F - 57.2 °F 77% 29.99 in 10.0 mi Calm Calm - N/A   Overcast
2:52 AM 64.0 °F - 57.9 °F 80% 29.99 in 10.0 mi Calm Calm - N/A   Mostly Cloudy
3:52 AM 62.1 °F - 55.0 °F 78% 30.00 in 10.0 mi NNE 3.5 mph - N/A   Partly Cloudy
4:52 AM 60.1 °F - 54.0 °F 80% 30.00 in 10.0 mi Calm Calm - N/A   Clear
5:52 AM 59.0 °F - 53.1 °F 81% 30.02 in 10.0 mi Calm Calm - N/A   Clear
6:52 AM 61.0 °F - 52.0 °F 72% 30.04 in 10.0 mi Calm Calm - N/A   Clear
7:52 AM 64.0 °F - 50.0 °F 60% 30.05 in 10.0 mi NE 3.5 mph - N/A   Clear
8:52 AM 66.0 °F - 48.9 °F 54% 30.06 in 10.0 mi Variable 3.5 mph - N/A   Partly Cloudy
9:52 AM 70.0 °F - 48.9 °F 47% 30.03 in 10.0 mi Calm Calm - N/A   Clear
10:52 AM 73.0 °F - 52.0 °F 48% 30.03 in 10.0 mi NW 3.5 mph - N/A   Clear
11:52 AM 75.9 °F - 54.0 °F 46% 30.02 in 10.0 mi Variable 3.5 mph - N/A   Clear
12:52 PM 79.0 °F - 55.0 °F 44% 30.01 in 10.0 mi NNE 3.5 mph - N/A   Clear
1:52 PM 80.1 °F 80.2 °F 55.9 °F 43% 29.99 in 10.0 mi Variable 5.8 mph - N/A   Clear
2:52 PM 82.0 °F 81.7 °F 57.0 °F 42% 29.96 in 10.0 mi SSE 5.8 mph - N/A   Clear
3:52 PM 82.9 °F 82.6 °F 57.9 °F 42% 29.94 in 10.0 mi Variable 4.6 mph - N/A   Clear
4:52 PM 82.0 °F 82.4 °F 60.1 °F 47% 29.94 in 10.0 mi SSE 11.5 mph 18.4 mph N/A   Clear
5:52 PM 81.0 °F 81.7 °F 61.0 °F 50% 29.94 in 10.0 mi SSE 8.1 mph - N/A   Clear
6:52 PM 79.0 °F - 62.1 °F 56% 29.94 in 10.0 mi SSE 11.5 mph - N/A   Clear
7:52 PM 73.0 °F - 60.1 °F 64% 29.96 in 10.0 mi SSE 3.5 mph - N/A   Clear
8:34 PM 69.8 °F - 57.2 °F 64% 29.96 in 10.0 mi Variable 4.6 mph - N/A   Mostly Cloudy
8:52 PM 70.0 °F - 57.0 °F 63% 29.96 in 10.0 mi Calm Calm - N/A   Overcast
9:52 PM 68.0 °F - 55.9 °F 65% 29.97 in 10.0 mi Calm Calm - N/A   Overcast
10:20 PM 66.2 °F - 55.4 °F 68% 29.97 in 10.0 mi Calm Calm - 0.00 in   Overcast
10:52 PM 66.9 °F - 55.9 °F 68% 29.96 in 10.0 mi South 3.5 mph - 0.00 in   Overcast
11:52 PM 66.0 °F - 55.9 °F 70% 29.96 in 10.0 mi Calm Calm - N/A   Overcast